TimeEDT,TemperatureF,Dew PointF,Humidity,Sea Level PressureIn,VisibilityMPH,Wind Direction,Wind SpeedMPH,Gust SpeedMPH,PrecipitationIn,Events,Conditions,WindDirDegrees,DateUTC
12:58 AM,31.5,11.1,43,29.99,10.0,NNE,3.5,-,N/A,,Clear,20,2013-03-22 04:58:00
1:58 AM,30.6,10.9,44,29.99,10.0,NNE,5.8,-,N/A,,Clear,30,2013-03-22 05:58:00
2:58 AM,30.2,10.8,44,30.01,10.0,North,3.5,-,N/A,,Clear,10,2013-03-22 06:58:00
3:58 AM,29.7,10.4,45,30.01,10.0,NNW,1.2,-,N/A,,Clear,340,2013-03-22 07:58:00
4:58 AM,27.5,13.8,56,30.04,10.0,WSW,3.5,-,N/A,,Clear,250,2013-03-22 08:58:00
5:58 AM,25.9,14.9,63,30.06,10.0,WNW,5.8,-,N/A,,Clear,290,2013-03-22 09:58:00
6:58 AM,23.7,14.2,67,30.09,10.0,WNW,3.5,-,N/A,,Clear,290,2013-03-22 10:58:00
7:58 AM,24.4,15.4,69,30.11,10.0,WSW,3.5,-,N/A,,Clear,240,2013-03-22 11:58:00
8:58 AM,31.3,15.4,52,30.12,10.0,Variable,2.3,-,N/A,,Clear,0,2013-03-22 12:58:00
9:58 AM,35.1,11.5,38,30.12,10.0,Variable,4.6,-,N/A,,Clear,0,2013-03-22 13:58:00
10:58 AM,37.6,11.7,34,30.10,10.0,Variable,3.5,-,N/A,,Clear,0,2013-03-22 14:58:00
11:58 AM,43.2,11.8,28,30.10,10.0,Variable,5.8,-,N/A,,Clear,0,2013-03-22 15:58:00
12:58 PM,45.5,12.7,27,30.08,10.0,West,6.9,-,N/A,,Clear,270,2013-03-22 16:58:00
1:58 PM,47.5,13.6,26,30.04,10.0,Variable,4.6,-,N/A,,Clear,0,2013-03-22 17:58:00
2:58 PM,51.1,13.3,22,30.01,10.0,Variable,3.5,-,N/A,,Clear,0,2013-03-22 18:58:00
3:58 PM,53.2,14.2,21,29.99,10.0,WNW,8.1,-,N/A,,Clear,290,2013-03-22 19:58:00
4:58 PM,53.8,14.2,21,29.99,10.0,West,11.5,-,N/A,,Clear,270,2013-03-22 20:58:00
5:58 PM,53.2,15.6,23,29.99,10.0,West,12.7,-,N/A,,Clear,270,2013-03-22 21:58:00
6:59 PM,52.2,17.1,25,30.00,10.0,West,9.2,-,N/A,,Partly Cloudy,270,2013-03-22 22:59:00
7:58 PM,46.9,20.1,35,30.01,10.0,WSW,8.1,-,N/A,,Clear,240,2013-03-22 23:58:00
8:58 PM,43.2,20.8,41,30.03,10.0,WSW,5.8,-,N/A,,Scattered Clouds,250,2013-03-23 00:58:00
9:58 PM,41.2,21.7,46,30.04,10.0,North,2.3,-,N/A,,Partly Cloudy,350,2013-03-23 01:58:00
10:58 PM,38.1,24.6,58,30.04,10.0,NW,2.3,-,N/A,,Partly Cloudy,310,2013-03-23 02:58:00
11:58 PM,35.6,27.1,71,30.04,10.0,North,1.2,-,N/A,,Scattered Clouds,10,2013-03-23 03:58:00